EJU97HA LEPA-LPPT

Flight info

Callsign EJU97HA
Flight time 1h 43m
Altitude 33000
Route EPAMA N733 VLC/N0319F130 N733 CJN N975 CCS DCT UPULO
Aircraft A320/M-SDE2E3FGHIJ1RWXYZ/LB1

Departure

Time 2026-05-07 06:51
Airport Palma de Mallorca Airport (LEPA)

Arrival

Time 2026-05-07 08:35
Airport Lisbon Humberto Delgado Airport (LPPT)
Time Latitude Longitude Altitude Speed Heading
2026-05-07 06:22 39.54835 2.73571 38 ft 0 kts 58°
2026-05-07 06:39 39.54823 2.73546 38 ft 3 kts 58°
2026-05-07 06:39 39.54810 2.73523 36 ft 4 kts 33°
2026-05-07 06:39 39.54789 2.73518 35 ft 4 kts 335°
2026-05-07 06:40 39.54766 2.73534 37 ft 4 kts 329°
2026-05-07 06:40 39.54743 2.73552 36 ft 4 kts 329°
2026-05-07 06:40 39.54738 2.73556 37 ft 0 kts 329°
2026-05-07 06:44 39.54760 2.73538 37 ft 9 kts 324°
2026-05-07 06:44 39.54746 2.73474 38 ft 9 kts 193°
2026-05-07 06:44 39.54690 2.73503 38 ft 10 kts 150°
2026-05-07 06:44 39.54656 2.73529 38 ft 1 kts 150°
2026-05-07 06:45 39.54655 2.73529 38 ft 0 kts 150°
2026-05-07 06:47 39.54655 2.73530 38 ft 1 kts 150°
2026-05-07 06:47 39.54628 2.73574 38 ft 10 kts 115°
2026-05-07 06:47 39.54573 2.73630 38 ft 11 kts 184°
2026-05-07 06:48 39.54517 2.73550 38 ft 14 kts 238°
2026-05-07 06:48 39.54464 2.73436 38 ft 14 kts 239°
2026-05-07 06:48 39.54411 2.73325 36 ft 16 kts 236°
2026-05-07 06:48 39.54357 2.73213 38 ft 14 kts 238°
2026-05-07 06:49 39.54309 2.73113 38 ft 12 kts 238°
2026-05-07 06:49 39.54254 2.73052 38 ft 8 kts 186°
2026-05-07 06:49 39.54228 2.73066 36 ft 0 kts 133°
2026-05-07 06:49 39.54228 2.73067 36 ft 1 kts 133°
2026-05-07 06:50 39.54213 2.73125 38 ft 12 kts 95°
2026-05-07 06:50 39.54213 2.73244 38 ft 14 kts 90°
2026-05-07 06:50 39.54225 2.73374 38 ft 16 kts 66°
2026-05-07 06:50 39.54339 2.73621 38 ft 63 kts 58°
2026-05-07 06:51 39.54683 2.74344 38 ft 124 kts 58°
2026-05-07 06:51 39.55216 2.75475 136 ft 160 kts 60°
2026-05-07 06:51 39.55780 2.76707 780 ft 159 kts 59°
2026-05-07 06:51 39.56341 2.77942 1402 ft 162 kts 59°
2026-05-07 06:52 39.56949 2.79282 1712 ft 183 kts 60°
2026-05-07 06:52 39.57635 2.80795 2029 ft 205 kts 60°
2026-05-07 06:52 39.58364 2.82399 2767 ft 206 kts 60°
2026-05-07 06:52 39.59100 2.84009 3500 ft 209 kts 60°
2026-05-07 06:53 39.59851 2.85649 4194 ft 213 kts 60°
2026-05-07 06:53 39.60612 2.87317 4907 ft 216 kts 60°
2026-05-07 06:53 39.61388 2.89011 5592 ft 220 kts 59°
2026-05-07 06:53 39.62453 2.90408 6268 ft 227 kts 30°
2026-05-07 06:54 39.64002 2.90953 6753 ft 244 kts
2026-05-07 06:54 39.65702 2.90362 7032 ft 269 kts 328°
2026-05-07 06:54 39.66958 2.88515 7509 ft 282 kts 292°
2026-05-07 06:54 39.67267 2.86006 8226 ft 286 kts 268°
2026-05-07 06:55 39.67189 2.83417 9034 ft 288 kts 266°
2026-05-07 06:55 39.67072 2.80817 9852 ft 289 kts 265°
2026-05-07 06:55 39.66944 2.78188 10399 ft 301 kts 265°
2026-05-07 06:55 39.66808 2.75401 10613 ft 322 kts 265°
2026-05-07 06:56 39.66670 2.72424 11193 ft 330 kts 265°
2026-05-07 06:56 39.66542 2.69473 11869 ft 334 kts 265°
2026-05-07 06:56 39.66413 2.66454 12603 ft 336 kts 266°
2026-05-07 06:56 39.66287 2.63405 13296 ft 340 kts 266°
2026-05-07 06:57 39.66158 2.60327 13975 ft 343 kts 266°
2026-05-07 06:57 39.66026 2.57230 14590 ft 346 kts 266°
2026-05-07 06:57 39.65894 2.54103 15181 ft 348 kts 265°
2026-05-07 06:57 39.65760 2.50950 15802 ft 351 kts 265°
2026-05-07 06:58 39.65624 2.47779 16408 ft 354 kts 265°
2026-05-07 06:58 39.65484 2.44569 17016 ft 357 kts 265°
2026-05-07 06:58 39.65344 2.41347 17603 ft 360 kts 265°
2026-05-07 06:58 39.65202 2.38093 18190 ft 362 kts 265°
2026-05-07 06:59 39.65056 2.34814 18710 ft 365 kts 265°
2026-05-07 06:59 39.64903 2.31521 19263 ft 366 kts 265°
2026-05-07 06:59 39.64750 2.28227 19844 ft 367 kts 264°
2026-05-07 06:59 39.64598 2.24926 20447 ft 366 kts 264°
2026-05-07 07:00 39.64447 2.21626 21055 ft 366 kts 264°
2026-05-07 07:00 39.64298 2.18326 21654 ft 366 kts 264°
2026-05-07 07:00 39.64149 2.15025 22245 ft 367 kts 264°
2026-05-07 07:00 39.63998 2.11728 22818 ft 367 kts 264°
2026-05-07 07:01 39.63844 2.08413 23371 ft 367 kts 263°
2026-05-07 07:01 39.63687 2.05143 23834 ft 368 kts 263°
2026-05-07 07:01 39.63526 2.01821 24248 ft 370 kts 263°
2026-05-07 07:01 39.63364 1.98446 24639 ft 371 kts 263°
2026-05-07 07:02 39.63203 1.95091 25010 ft 373 kts 263°
2026-05-07 07:02 39.63043 1.91763 25378 ft 375 kts 263°
2026-05-07 07:02 39.62880 1.88375 25756 ft 377 kts 263°
2026-05-07 07:02 39.62716 1.84972 26110 ft 379 kts 263°
2026-05-07 07:03 39.62549 1.81552 26454 ft 381 kts 263°
2026-05-07 07:03 39.62379 1.78117 26799 ft 382 kts 263°
2026-05-07 07:03 39.62205 1.74664 27131 ft 384 kts 263°
2026-05-07 07:03 39.62027 1.71195 27460 ft 386 kts 263°
2026-05-07 07:04 39.61851 1.67716 27789 ft 388 kts 263°
2026-05-07 07:04 39.61674 1.64203 28103 ft 390 kts 263°
2026-05-07 07:04 39.61493 1.60691 28419 ft 392 kts 263°
2026-05-07 07:04 39.61310 1.57154 28724 ft 394 kts 263°
2026-05-07 07:05 39.61128 1.53600 29009 ft 396 kts 263°
2026-05-07 07:05 39.60944 1.50036 29300 ft 398 kts 263°
2026-05-07 07:05 39.60757 1.46444 29573 ft 400 kts 263°
2026-05-07 07:05 39.60567 1.42833 29837 ft 402 kts 263°
2026-05-07 07:06 39.60375 1.39206 30093 ft 404 kts 263°
2026-05-07 07:06 39.60180 1.35574 30317 ft 405 kts 262°
2026-05-07 07:06 39.59981 1.31914 30545 ft 406 kts 262°
2026-05-07 07:06 39.59783 1.28302 30771 ft 407 kts 262°
2026-05-07 07:07 39.59578 1.24605 31092 ft 406 kts 262°
2026-05-07 07:07 39.59374 1.21004 31414 ft 404 kts 262°
2026-05-07 07:07 39.59167 1.17384 31730 ft 403 kts 262°
2026-05-07 07:07 39.58957 1.13760 32067 ft 401 kts 262°
2026-05-07 07:08 39.58746 1.10160 32348 ft 401 kts 262°
2026-05-07 07:08 39.58537 1.06556 32644 ft 400 kts 262°
2026-05-07 07:08 39.58332 1.02958 32910 ft 400 kts 262°
2026-05-07 07:08 39.58129 0.99379 32979 ft 393 kts 262°
2026-05-07 07:09 39.57727 0.92411 32983 ft 385 kts 262°
2026-05-07 07:09 39.57382 0.86678 32979 ft 383 kts 262°
2026-05-07 07:10 39.56968 0.79800 32977 ft 382 kts 262°
2026-05-07 07:10 39.56556 0.72930 32980 ft 382 kts 261°
2026-05-07 07:11 39.56136 0.66058 32976 ft 382 kts 261°
2026-05-07 07:11 39.55712 0.59188 32972 ft 382 kts 261°
2026-05-07 07:12 39.55282 0.52329 32972 ft 382 kts 261°
2026-05-07 07:12 39.54853 0.45509 32968 ft 382 kts 261°
2026-05-07 07:13 39.54421 0.38653 32971 ft 382 kts 261°
2026-05-07 07:13 39.53988 0.31786 32971 ft 383 kts 261°
2026-05-07 07:14 39.53549 0.24916 32964 ft 383 kts 261°
2026-05-07 07:14 39.53097 0.18033 32962 ft 383 kts 261°
2026-05-07 07:15 39.52642 0.11153 32962 ft 384 kts 261°
2026-05-07 07:15 39.52186 0.04263 32963 ft 384 kts 261°
2026-05-07 07:16 39.51731 -0.02621 32982 ft 384 kts 261°
2026-05-07 07:16 39.51268 -0.09520 32974 ft 385 kts 261°
2026-05-07 07:17 39.50792 -0.16420 32971 ft 385 kts 261°
2026-05-07 07:17 39.50316 -0.23334 32976 ft 385 kts 261°
2026-05-07 07:18 39.49839 -0.30245 32981 ft 386 kts 261°
2026-05-07 07:18 39.49348 -0.37163 32987 ft 386 kts 260°
2026-05-07 07:19 39.48912 -0.44083 32986 ft 388 kts 265°
2026-05-07 07:19 39.49157 -0.47588 32986 ft 395 kts 276°
2026-05-07 07:19 39.49929 -0.51030 32986 ft 402 kts 286°
2026-05-07 07:20 39.52629 -0.57478 32985 ft 409 kts 293°
2026-05-07 07:20 39.55468 -0.63876 32980 ft 409 kts 293°
2026-05-07 07:21 39.58282 -0.70262 32989 ft 410 kts 293°
2026-05-07 07:21 39.61105 -0.76679 33018 ft 410 kts 293°
2026-05-07 07:22 39.63942 -0.83125 32982 ft 411 kts 293°
2026-05-07 07:22 39.66775 -0.89581 32973 ft 412 kts 293°
2026-05-07 07:23 39.69599 -0.96048 32999 ft 412 kts 293°
2026-05-07 07:23 39.72410 -1.02499 33007 ft 412 kts 292°
2026-05-07 07:24 39.75230 -1.08997 33013 ft 413 kts 292°
2026-05-07 07:24 39.78050 -1.15493 33037 ft 413 kts 293°
2026-05-07 07:25 39.82298 -1.25252 33021 ft 414 kts 293°
2026-05-07 07:26 39.85133 -1.31786 33005 ft 414 kts 293°
2026-05-07 07:26 39.87959 -1.38318 32994 ft 414 kts 293°
2026-05-07 07:27 39.90786 -1.44865 32989 ft 414 kts 293°
2026-05-07 07:27 39.93602 -1.51412 32980 ft 414 kts 293°
2026-05-07 07:28 39.96419 -1.57978 32992 ft 415 kts 293°
2026-05-07 07:28 39.99239 -1.64558 32982 ft 416 kts 293°
2026-05-07 07:29 40.02061 -1.71147 32976 ft 416 kts 293°
2026-05-07 07:29 40.04880 -1.77749 32970 ft 416 kts 293°
2026-05-07 07:30 40.07689 -1.84357 32956 ft 417 kts 293°
2026-05-07 07:30 40.10497 -1.90969 32983 ft 417 kts 293°
2026-05-07 07:31 40.13283 -1.97560 32967 ft 417 kts 293°
2026-05-07 07:31 40.16092 -2.04197 32947 ft 418 kts 294°
2026-05-07 07:32 40.18925 -2.10839 32942 ft 418 kts 294°
2026-05-07 07:32 40.21761 -2.17487 32937 ft 418 kts 294°
2026-05-07 07:33 40.24568 -2.24146 32938 ft 418 kts 294°
2026-05-07 07:33 40.27361 -2.30829 32955 ft 418 kts 293°
2026-05-07 07:34 40.30152 -2.37523 32942 ft 419 kts 293°
2026-05-07 07:34 40.32942 -2.44225 32938 ft 419 kts 293°
2026-05-07 07:35 40.35386 -2.51081 32933 ft 411 kts 281°
2026-05-07 07:35 40.35994 -2.58373 32924 ft 399 kts 261°
2026-05-07 07:36 40.34833 -2.65406 32922 ft 394 kts 251°
2026-05-07 07:36 40.33340 -2.72280 32931 ft 395 kts 251°
2026-05-07 07:37 40.31840 -2.79202 32921 ft 395 kts 251°
2026-05-07 07:37 40.30329 -2.86137 32920 ft 396 kts 250°
2026-05-07 07:38 40.28816 -2.93067 32915 ft 396 kts 250°
2026-05-07 07:38 40.27293 -3.00003 32918 ft 396 kts 250°
2026-05-07 07:39 40.25765 -3.06928 32932 ft 396 kts 250°
2026-05-07 07:39 40.24229 -3.13862 32917 ft 396 kts 250°
2026-05-07 07:40 40.22685 -3.20787 32920 ft 397 kts 250°
2026-05-07 07:40 40.21139 -3.27721 32920 ft 397 kts 250°
2026-05-07 07:41 40.19595 -3.34656 32917 ft 397 kts 250°
2026-05-07 07:41 40.18057 -3.41541 32916 ft 397 kts 250°
2026-05-07 07:42 40.16502 -3.48468 32933 ft 397 kts 249°
2026-05-07 07:42 40.14943 -3.55384 32926 ft 397 kts 249°
2026-05-07 07:43 40.13381 -3.62295 32923 ft 397 kts 249°
2026-05-07 07:43 40.11817 -3.69210 32921 ft 397 kts 249°
2026-05-07 07:44 40.10252 -3.76113 32898 ft 397 kts 249°
2026-05-07 07:44 40.08673 -3.83017 32919 ft 396 kts 249°
2026-05-07 07:45 40.07092 -3.89914 32905 ft 397 kts 249°
2026-05-07 07:45 40.05505 -3.96816 32900 ft 397 kts 249°
2026-05-07 07:46 40.03916 -4.03728 32891 ft 397 kts 249°
2026-05-07 07:46 40.02324 -4.10642 32892 ft 398 kts 249°
2026-05-07 07:47 40.00725 -4.17545 32896 ft 398 kts 249°
2026-05-07 07:47 39.99117 -4.24452 32895 ft 398 kts 249°
2026-05-07 07:48 39.97515 -4.31310 32898 ft 398 kts 249°
2026-05-07 07:48 39.95959 -4.38230 32898 ft 399 kts 250°
2026-05-07 07:49 39.94561 -4.45234 32894 ft 399 kts 251°
2026-05-07 07:49 39.93187 -4.52237 32882 ft 399 kts 251°
2026-05-07 07:50 39.91780 -4.59229 32913 ft 399 kts 251°
2026-05-07 07:50 39.90350 -4.66204 32901 ft 399 kts 250°
2026-05-07 07:51 39.88903 -4.73186 32898 ft 399 kts 250°
2026-05-07 07:51 39.87455 -4.80170 32895 ft 399 kts 250°
2026-05-07 07:52 39.86014 -4.87154 32889 ft 400 kts 250°
2026-05-07 07:52 39.84569 -4.94144 32887 ft 400 kts 250°
2026-05-07 07:53 39.83116 -5.01134 32899 ft 401 kts 251°
2026-05-07 07:53 39.81653 -5.08142 32891 ft 402 kts 251°
2026-05-07 07:54 39.80189 -5.15112 32889 ft 402 kts 251°
2026-05-07 07:54 39.78718 -5.22139 32890 ft 403 kts 251°
2026-05-07 07:55 39.77238 -5.29167 32888 ft 403 kts 251°
2026-05-07 07:55 39.75751 -5.36187 32897 ft 403 kts 252°
2026-05-07 07:56 39.74257 -5.43228 32886 ft 404 kts 252°
2026-05-07 07:56 39.73009 -5.49089 32888 ft 405 kts 251°
2026-05-07 07:57 39.71258 -5.57282 32887 ft 406 kts 251°
2026-05-07 07:57 39.69747 -5.64332 32889 ft 406 kts 252°
2026-05-07 07:58 39.68479 -5.70249 32891 ft 406 kts 251°
2026-05-07 07:58 39.66965 -5.77269 32895 ft 407 kts 253°
2026-05-07 07:59 39.65427 -5.84351 32877 ft 408 kts 253°
2026-05-07 07:59 39.63892 -5.91433 32881 ft 408 kts 253°
2026-05-07 08:00 39.62354 -5.98526 32884 ft 408 kts 253°
2026-05-07 08:00 39.60803 -6.05623 32890 ft 408 kts 253°
2026-05-07 08:01 39.59244 -6.12709 32892 ft 409 kts 255°
2026-05-07 08:01 39.57682 -6.19799 32889 ft 409 kts 255°
2026-05-07 08:02 39.56119 -6.26886 32889 ft 409 kts 255°
2026-05-07 08:02 39.54556 -6.33975 32890 ft 409 kts 255°
2026-05-07 08:03 39.52996 -6.41024 32889 ft 410 kts 255°
2026-05-07 08:03 39.50781 -6.47808 32880 ft 410 kts 246°
2026-05-07 08:04 39.48204 -6.54417 32883 ft 411 kts 246°
2026-05-07 08:04 39.45626 -6.61031 32888 ft 412 kts 246°
2026-05-07 08:05 39.43057 -6.67668 32886 ft 412 kts 247°
2026-05-07 08:05 39.40695 -6.74411 32900 ft 412 kts 250°
2026-05-07 08:06 39.38446 -6.81219 32900 ft 412 kts 250°
2026-05-07 08:06 39.36170 -6.88003 32885 ft 412 kts 251°
2026-05-07 08:07 39.33851 -6.94759 32887 ft 412 kts 251°
2026-05-07 08:07 39.31519 -7.01512 32899 ft 411 kts 251°
2026-05-07 08:08 39.29193 -7.08254 32904 ft 411 kts 251°
2026-05-07 08:08 39.26863 -7.14998 32909 ft 411 kts 251°
2026-05-07 08:09 39.24542 -7.21708 32647 ft 404 kts 251°
2026-05-07 08:09 39.23402 -7.24982 32352 ft 396 kts 252°
2026-05-07 08:09 39.22280 -7.28198 32094 ft 392 kts 253°
2026-05-07 08:09 39.21164 -7.31397 31844 ft 389 kts 253°
2026-05-07 08:10 39.20061 -7.34563 31584 ft 387 kts 253°
2026-05-07 08:10 39.18964 -7.37718 31340 ft 384 kts 253°
2026-05-07 08:10 39.17871 -7.40856 31087 ft 383 kts 253°
2026-05-07 08:10 39.16782 -7.43975 30835 ft 379 kts 253°
2026-05-07 08:11 39.15708 -7.47049 30478 ft 375 kts 253°
2026-05-07 08:11 39.14640 -7.50102 30047 ft 372 kts 254°
2026-05-07 08:11 39.13592 -7.53096 29579 ft 369 kts 254°
2026-05-07 08:11 39.12542 -7.56088 29168 ft 364 kts 253°
2026-05-07 08:12 39.11507 -7.59035 28762 ft 360 kts 253°
2026-05-07 08:12 39.10482 -7.61950 28368 ft 355 kts 253°
2026-05-07 08:12 39.09470 -7.64822 27985 ft 349 kts 254°
2026-05-07 08:12 39.08473 -7.67653 27608 ft 345 kts 253°
2026-05-07 08:13 39.07489 -7.70451 27228 ft 341 kts 253°
2026-05-07 08:13 39.06513 -7.73214 26839 ft 337 kts 253°
2026-05-07 08:13 39.05550 -7.75940 26454 ft 333 kts 253°
2026-05-07 08:13 39.04592 -7.78650 26070 ft 330 kts 252°
2026-05-07 08:14 39.03648 -7.81320 25679 ft 327 kts 252°
2026-05-07 08:14 39.02708 -7.83976 25294 ft 325 kts 252°
2026-05-07 08:14 39.01773 -7.86615 24902 ft 323 kts 251°
2026-05-07 08:14 39.00843 -7.89236 24503 ft 322 kts 251°
2026-05-07 08:15 38.99913 -7.91854 24099 ft 321 kts 250°
2026-05-07 08:15 38.98986 -7.94466 23683 ft 321 kts 250°
2026-05-07 08:15 38.98061 -7.97074 23240 ft 320 kts 249°
2026-05-07 08:15 38.97140 -7.99665 22820 ft 318 kts 249°
2026-05-07 08:16 38.96221 -8.02246 22425 ft 316 kts 249°
2026-05-07 08:16 38.95309 -8.04796 22041 ft 313 kts 249°
2026-05-07 08:16 38.94401 -8.07334 21658 ft 311 kts 249°
2026-05-07 08:16 38.93500 -8.09857 21267 ft 310 kts 248°
2026-05-07 08:17 38.92607 -8.12361 20887 ft 308 kts 248°
2026-05-07 08:17 38.91729 -8.14825 20519 ft 307 kts 248°
2026-05-07 08:17 38.90841 -8.17311 20145 ft 305 kts 248°
2026-05-07 08:17 38.89958 -8.19781 19780 ft 304 kts 248°
2026-05-07 08:18 38.89074 -8.22249 19395 ft 304 kts 247°
2026-05-07 08:18 38.88190 -8.24710 19023 ft 303 kts 247°
2026-05-07 08:18 38.87304 -8.27166 18655 ft 303 kts 246°
2026-05-07 08:18 38.86419 -8.29620 18282 ft 303 kts 246°
2026-05-07 08:19 38.85534 -8.32073 17885 ft 302 kts 246°
2026-05-07 08:19 38.84654 -8.34511 17516 ft 301 kts 246°
2026-05-07 08:19 38.83779 -8.36943 17154 ft 299 kts 247°
2026-05-07 08:19 38.82908 -8.39363 16798 ft 298 kts 246°
2026-05-07 08:20 38.82040 -8.41769 16438 ft 297 kts 246°
2026-05-07 08:20 38.81172 -8.44168 16093 ft 296 kts 246°
2026-05-07 08:20 38.80306 -8.46563 15747 ft 296 kts 246°
2026-05-07 08:20 38.79441 -8.48952 15406 ft 295 kts 246°
2026-05-07 08:21 38.78577 -8.51336 15058 ft 295 kts 246°
2026-05-07 08:21 38.77713 -8.53717 14716 ft 294 kts 246°
2026-05-07 08:21 38.76850 -8.56095 14372 ft 294 kts 246°
2026-05-07 08:21 38.75988 -8.58466 14021 ft 294 kts 246°
2026-05-07 08:22 38.75126 -8.60842 13657 ft 294 kts 246°
2026-05-07 08:22 38.74265 -8.63214 13286 ft 293 kts 246°
2026-05-07 08:22 38.73411 -8.65569 12937 ft 291 kts 245°
2026-05-07 08:22 38.72556 -8.67917 12591 ft 290 kts 245°
2026-05-07 08:23 38.71702 -8.70256 12236 ft 289 kts 245°
2026-05-07 08:23 38.70862 -8.72554 11891 ft 288 kts 245°
2026-05-07 08:23 38.70015 -8.74876 11529 ft 287 kts 245°
2026-05-07 08:23 38.69171 -8.77183 11169 ft 286 kts 245°
2026-05-07 08:24 38.68327 -8.79488 10803 ft 285 kts 245°
2026-05-07 08:24 38.67485 -8.81785 10443 ft 285 kts 245°
2026-05-07 08:24 38.66647 -8.84071 10083 ft 284 kts 244°
2026-05-07 08:24 38.65808 -8.86357 9694 ft 283 kts 244°
2026-05-07 08:25 38.64970 -8.88636 9300 ft 282 kts 244°
2026-05-07 08:25 38.64141 -8.90897 8929 ft 280 kts 244°
2026-05-07 08:25 38.63316 -8.93146 8542 ft 278 kts 244°
2026-05-07 08:25 38.62495 -8.95384 8153 ft 277 kts 244°
2026-05-07 08:26 38.60865 -8.99816 7363 ft 275 kts 244°
2026-05-07 08:26 38.60050 -9.02021 6973 ft 274 kts 244°
2026-05-07 08:26 38.59239 -9.04223 6556 ft 274 kts 244°
2026-05-07 08:27 38.58430 -9.06423 6138 ft 273 kts 244°
2026-05-07 08:27 38.57626 -9.08598 5848 ft 266 kts 244°
2026-05-07 08:27 38.56853 -9.10684 5754 ft 253 kts 246°
2026-05-07 08:27 38.56118 -9.12663 5652 ft 241 kts 246°
2026-05-07 08:28 38.55414 -9.14556 5527 ft 230 kts 246°
2026-05-07 08:28 38.54743 -9.16365 5449 ft 220 kts 247°
2026-05-07 08:28 38.54111 -9.18090 5347 ft 210 kts 250°
2026-05-07 08:28 38.53972 -9.19830 5293 ft 191 kts 287°
2026-05-07 08:29 38.54676 -9.21208 5048 ft 188 kts 324°
2026-05-07 08:29 38.55847 -9.21909 4757 ft 185 kts 337°
2026-05-07 08:29 38.57032 -9.22529 4461 ft 183 kts 337°
2026-05-07 08:29 38.58188 -9.23134 4211 ft 182 kts 340°
2026-05-07 08:30 38.59432 -9.23355 3990 ft 182 kts
2026-05-07 08:30 38.60649 -9.22921 3779 ft 183 kts 20°
2026-05-07 08:30 38.61833 -9.22290 3526 ft 182 kts 20°
2026-05-07 08:30 38.62990 -9.21672 3284 ft 182 kts 21°
2026-05-07 08:31 38.64145 -9.21057 3031 ft 176 kts 20°
2026-05-07 08:31 38.65242 -9.20472 2806 ft 167 kts 20°
2026-05-07 08:31 38.66295 -9.19911 2571 ft 161 kts 20°
2026-05-07 08:31 38.67321 -9.19365 2355 ft 159 kts 20°
2026-05-07 08:32 38.68341 -9.18822 2132 ft 158 kts 20°
2026-05-07 08:32 38.69351 -9.18283 1919 ft 158 kts 19°
2026-05-07 08:32 38.70361 -9.17745 1715 ft 156 kts 20°
2026-05-07 08:32 38.71326 -9.17229 1498 ft 145 kts 19°
2026-05-07 08:33 38.72229 -9.16747 1313 ft 138 kts 19°
2026-05-07 08:33 38.73108 -9.16278 1113 ft 135 kts 18°
2026-05-07 08:33 38.73970 -9.15817 941 ft 134 kts 20°
2026-05-07 08:33 38.74842 -9.15350 738 ft 137 kts 20°
2026-05-07 08:34 38.75719 -9.14884 570 ft 138 kts 20°
2026-05-07 08:34 38.76604 -9.14412 403 ft 137 kts 19°
2026-05-07 08:34 38.77431 -9.13979 363 ft 109 kts 22°
2026-05-07 08:34 38.77966 -9.13684 366 ft 59 kts 23°
2026-05-07 08:35 38.78193 -9.13556 368 ft 26 kts 30°
2026-05-07 08:35 38.78332 -9.13408 364 ft 26 kts 48°
2026-05-07 08:35 38.78368 -9.13294 366 ft 11 kts 115°
2026-05-07 08:35 38.78297 -9.13277 363 ft 11 kts 189°
2026-05-07 08:36 38.78226 -9.13313 361 ft 11 kts 205°
2026-05-07 08:36 38.78160 -9.13349 362 ft 10 kts 203°
2026-05-07 08:36 38.78090 -9.13387 360 ft 14 kts 203°
2026-05-07 08:36 38.77974 -9.13404 354 ft 21 kts 168°
2026-05-07 08:37 38.77821 -9.13363 347 ft 24 kts 168°
2026-05-07 08:37 38.77642 -9.13322 338 ft 28 kts 177°
2026-05-07 08:37 38.77485 -9.13295 334 ft 21 kts 169°
2026-05-07 08:37 38.77349 -9.13263 337 ft 19 kts 171°
2026-05-07 08:38 38.77224 -9.13231 336 ft 17 kts 168°
2026-05-07 08:38 38.77111 -9.13201 338 ft 16 kts 168°
2026-05-07 08:38 38.77029 -9.13174 338 ft 7 kts 143°
2026-05-07 08:38 38.77023 -9.13119 335 ft 4 kts 80°
2026-05-07 08:39 38.77026 -9.13099 337 ft 1 kts 80°
2026-05-07 08:39 38.77027 -9.13092 337 ft 0 kts 80°
2026-05-07 08:39 38.77027 -9.13091 337 ft 0 kts 80°
2026-05-07 08:39 38.77028 -9.13089 337 ft 0 kts 80°